#timestamp,LO_Frequency,Hit,StdDev 
1628920815.7,286047002.1,N
1628920835.6,286047001.8,N
1628920855.4,286047003.8,Y
1628920875.3,286047003.9,P
1628920895.1,286047001.5,N
1628920915.9,286047002.8,N
1628920935.7,286046999.7,N
1628920955.5,286047000.4,N
1628920975.4,286047000.3,N
1628920995.2,286047000.5,N
1628921015.0,286047002.5,N
1628921016.0,286047002.5,N
1628921035.8,286047001.7,N
1628921055.6,286047002.0,N
1628921075.5,286047004.4,Y
1628921095.3,286047000.1,P
1628921115.1,286047002.8,P
1628921135.9,286047000.5,N
1628921155.7,286047002.3,N
1628921175.6,286046999.9,N
1628921195.4,286047002.5,N
1628921215.2,286047000.0,N
1628921235.1,286047002.5,N
1628921236.0,286047002.5,N
1628921255.8,286047002.8,N
1628921275.7,286046999.7,N
1628921295.5,286047000.5,N
1628921315.3,286047000.0,N
1628921335.2,286047000.9,N
1628921355.0,286047000.3,N
1628921355.9,286047000.3,N
1628921375.7,286047002.4,N
1628921395.6,286047002.6,N
1628921415.4,286046999.9,N
1628921435.3,286047000.0,N
1628921455.1,286047000.4,N
1628921475.9,286046998.1,N
1628921495.7,286047001.1,N
1628921515.5,286047000.1,N
1628921535.4,286046999.7,N
1628921555.2,286047001.0,N
1628921575.0,286046998.3,N
1628921575.9,286046998.3,N
1628921595.8,286046998.8,N
1628921615.6,286046998.1,N
1628921635.5,286046998.3,N
1628921655.3,286047000.5,N
1628921675.1,286047001.0,N
1628921695.9,286047001.1,N
1628921715.7,286046998.3,N
1628921735.5,286046998.7,N
1628921755.4,286046999.4,N
1628921775.2,286046999.5,N
1628921795.1,286046999.4,N
1628921796.0,286046999.4,N
1628921815.8,286046998.4,N
1628921835.6,286046998.5,N
1628921855.5,286046998.7,N
1628921875.3,286047001.2,N
1628921895.1,286047001.2,N
1628921915.9,286046998.1,N
1628921935.7,286047000.7,N
1628921955.6,286047000.5,N
1628921975.4,286046998.8,N
1628921995.2,286046996.7,Y
1628922015.1,286046999.2,P
1628922016.0,286046999.2,P
1628922035.8,286046998.7,P
1628922055.7,286046998.9,Y
1628922075.5,286046999.0,P
1628922095.4,286046998.2,P
1628922115.2,286047001.0,N
1628922135.0,286047001.0,N
1628922135.9,286047001.0,N
1628922155.8,286047000.0,N
1628922175.6,286047002.2,N
1628922195.5,286047002.6,N
1628922215.1,286047001.9,N
1628922216.0,286047001.9,N
1628922235.8,286047004.3,Y
1628922255.7,286047001.3,P
1628922275.5,286047001.6,P
1628922295.3,286047004.0,P
1628922315.2,286047001.8,N
1628922335.0,286046999.9,N
1628922335.9,286046999.9,N
1628922355.7,286047000.2,N
1628922375.6,286047001.1,N
1628922395.4,286046999.9,N
1628922415.3,286046999.2,N
1628922435.1,286046999.4,N
1628922436.0,286046999.4,N
1628922455.8,286046996.6,N
1628922475.7,286046999.5,N
1628922495.5,286046999.3,N
1628922515.3,286046999.0,N
1628922535.2,286046997.9,N
1628922555.0,286046995.9,N
1628922555.9,286046995.9,N
1628922575.8,286046995.3,N
1628922595.6,286046993.8,N
1628922615.4,286046993.6,N
1628922635.3,286046992.2,Y
1628922685.1,286046994.0,E
1628922695.1,286046997.9,N
1628922696.0,286046997.9,P
1628922715.8,286046998.1,P
1628922735.6,286047002.6,Y
1628922755.5,286047005.6,P
1628922775.3,286047006.9,N
1628922795.2,286047005.6,N
1628922815.9,286047005.5,N
1628922835.7,286047003.8,N
1628922855.6,286047003.5,N
1628922875.4,286047005.6,N
1628922895.2,286047002.9,N
1628922915.1,286047005.5,N
1628922916.0,286047005.5,N
1628922935.8,286047005.9,N
1628922955.7,286047005.3,N
1628922975.5,286047005.2,N
1628922995.3,286047004.8,N
1628923015.2,286047007.6,Y
1628923035.0,286047002.1,P
1628923035.9,286047002.1,N
1628923055.7,286047002.0,N
1628923075.6,286047001.9,N
1628923095.4,286047001.5,N
1628923115.3,286047003.9,Y
1628923135.1,286046998.4,P
1628923136.0,286046998.4,N
1628923155.8,286046999.9,N
1628923175.5,286046998.3,N
1628923195.4,286046998.2,N
1628923215.2,286046998.7,N
1628923235.0,286046998.4,N
1628923235.9,286046998.4,N
1628923255.8,286046999.4,N
1628923275.6,286046999.4,N
1628923295.5,286046999.1,N
1628923315.3,286046996.9,N
1628923335.1,286046997.4,N
1628923355.9,286046996.7,N
1628923375.7,286046998.6,N
1628923395.5,286046998.6,N
1628923415.4,286046998.2,N
1628923435.2,286046999.5,N
1628923455.1,286046999.2,N
1628923456.0,286046999.2,N
1628923475.8,286046998.6,N
1628923495.6,286047000.5,N
1628923515.5,286047002.5,N
1628923535.3,286046999.7,N
1628923555.1,286047001.7,N
1628923575.9,286047001.4,N
1628923595.7,286047004.3,N
1628923615.6,286047003.6,N
1628923635.4,286047003.3,N
1628923655.2,286047004.2,N
1628923675.1,286047002.9,N
1628923676.0,286047002.9,N
1628923695.8,286047005.8,N
1628923715.6,286047005.7,N
1628923735.3,286047005.7,N
1628923755.2,286047005.5,N
1628923775.0,286047005.6,N
1628923775.9,286047005.6,N
1628923795.8,286047003.1,N
1628923815.6,286047003.9,N
1628923835.4,286047004.2,N
1628923855.3,286047003.5,N
1628923875.1,286047003.4,N
1628923895.9,286047005.6,N
1628923915.7,286047005.8,N
1628923935.5,286047005.8,N
1628923955.4,286047004.8,N
1628923975.2,286047004.9,N
1628923995.0,286047005.5,N
1628923996.0,286047005.5,N
1628924015.8,286047003.4,N
1628924035.6,286047005.9,Y
1628924055.5,286047000.7,P
1628924075.3,286047000.5,N
1628924095.2,286047000.0,N
1628924115.0,286047000.9,N
1628924115.9,286047000.9,N
1628924135.7,286047000.0,N
1628924155.6,286047000.4,N
1628924175.4,286047001.1,N
1628924195.3,286046999.0,N
1628924215.1,286046998.1,N
1628924216.0,286046998.1,N
1628924235.8,286046998.6,N
1628924255.7,286047001.2,N
1628924275.5,286046998.2,N
1628924295.3,286046998.8,N
1628924315.2,286046999.3,N
1628924335.0,286046998.8,N
1628924335.9,286046998.8,N
1628924355.8,286046998.3,N
1628924375.6,286046998.6,N
1628924395.4,286046998.5,N
